Location: Asheville, NC
(35.6000°N, 82.5500°W)
Time: 01:29:56
(UTC-05:00)

CUTE 1.7 + AOD 2 - Pass Details

Date: 14 February 2018
Orbit: 594 x 614 km, 97.6° (Epoch: 23 February)

Event Time Altitude Azimuth Distance (km) Brightness Sun altitude
Rises 19:09:21 0° 186° (S) 2,831 ? -12.4°
Reaches altitude 10° 19:11:39 10° 194° (SSW) 1,930 ? -12.9°
Maximum altitude 19:15:31 36° 262° (W) 944 ? -13.7°
Drops below altitude 10° 19:19:24 10° 330° (NNW) 1,934 ? -14.4°
Sets 19:21:43 0° 339° (NNW) 2,838 ? -14.9°
